Simultaneous Nadir Overpasses (SNOs) Predictions

Prediction of SNOs between NOAA-19 and NPP Satellite Orbit:

Table of predicted SNOs for the next 14.0 days since TLE Epoch: 6/8/2018
Index Date (NOAA-19) Time (NOAA-19) Lat,Lon (NOAA-19) SZA (NOAA-19 ) Date (NPP) Time (NPP) Lat,Lon (NPP) SZA (NPP ) Distance(km) Time Diff (sec)
1 06/11/2018 09:13:43 -80.44, 174.07 119.38 06/11/2018 09:14:51 -80.47, 176.99 119.77 54.00 68
2 06/11/2018 10:04:32 80.54, -16.55 60.42 06/11/2018 10:05:39 80.53, -16.57 60.38 1.53 67
3 06/11/2018 10:55:38 -80.54, 150.67 119.59 06/11/2018 10:56:24 -80.54, 150.59 119.60 1.53 46
4 06/11/2018 11:46:33 80.55, -42.00 60.41 06/11/2018 11:47:09 80.53, -41.98 60.38 1.54 36
5 06/11/2018 12:37:39 -80.55, 125.23 119.60 06/11/2018 12:37:54 -80.54, 125.18 119.60 0.85 15
6 06/11/2018 13:28:34 80.55, -67.44 60.40 06/11/2018 13:28:39 80.54, -67.39 60.38 1.82 5
7 06/11/2018 14:19:40 -80.55, 99.78 119.61 06/11/2018 14:19:24 -80.55, 99.77 119.60 0.30 16
8 06/11/2018 15:10:35 80.55, -92.89 60.39 06/11/2018 15:10:09 80.54, -92.80 60.38 2.25 26
9 06/11/2018 16:01:41 -80.55, 74.33 119.62 06/11/2018 16:00:54 -80.55, 74.36 119.60 0.66 47
10 06/11/2018 16:52:36 80.55,-118.33 60.38 06/11/2018 16:51:39 80.54,-118.21 60.39 2.78 57




NCC Satellite Simultaneous Nadir Overpasses (SNOs) Prediction Service
